This demonstration page uses our WeatherBlox Daily Observations layout. Learn more.

Left ArrowRight Arrow

39.29038, -76.61219

Hourly Observations for May 24, 2022

Temp ( °F °C ) Dew Point ( °F °C ) Humidity (%) Winds ( mph kmh ) Pressure ( in mb ) Visibility ( mi km ) Precip ( " mm )
12:54 am 00:54 Cloudy 62 16.7 54 12.2 75 75 VRB 3 6 30.20 1023 10 16 0.00 0.00
1:54 am 01:54 Cloudy with Light Rain 61 16.1 56 13.3 84 84 Calm 30.20 1023 10 16 0.01 0.25
2:54 am 02:54 Cloudy with Light Rain 60 15.6 56 13.3 86 86 WNW 3 6 30.20 1023 10 16 0.01 0.25
3:54 am 03:54 Cloudy with Light Rain 60 15.6 56 13.3 86 86 N 3 6 30.19 1022 8 13 0.05 1.27
4:54 am 04:54 Cloudy with Light Rain 60 15.6 57 13.9 90 90 ENE 5 7 30.17 1022 8 13 0.02 0.51
5:54 am 05:54 Cloudy with Light Rain 60 15.6 56 13.3 86 86 ENE 10 17 30.16 1022 7 11 0.03 0.76
6:54 am 06:54 Cloudy with Light Rain 60 15.6 56 13.3 86 86 E 7 11 30.19 1022 7 11 0.03 0.76
7:54 am 07:54 Cloudy 61 16.1 56 13.3 84 84 E 6 9 30.21 1023 7 11 0.00 0.00
8:54 am 08:54 Cloudy 61 16.1 55 12.8 81 81 E 8 13 30.23 1024 7 11 0.00 0.00
9:54 am 09:54 Cloudy with Light Rain 62 16.7 56 13.3 80 80 E 9 15 30.24 1024 7 11 0.00 0.00
10:08 am 10:08 Cloudy with Light Rain 61 16.1 56 13.3 84 84 ENE 10 17 30.25 1024 7 11 0.00 0.00
10:33 am 10:33 Cloudy with Light Rain 60 15.6 56 13.3 86 86 ENE 8 13 30.25 1024 3 4 0.01 0.25
10:54 am 10:54 Cloudy with Light Rain 60 15.6 57 13.9 90 90 ENE 10 17 30.24 1024 2 2 0.02 0.51
11:24 am 11:24 Cloudy with Light Rain 61 16.1 58 14.4 90 90 ENE 8 13 30.24 1024 2 3 0.01 0.25
11:54 am 11:54 Cloudy with Drizzle 61 16.1 59 15 93 93 ENE 10 17 30.24 1024 3 5 0.02 0.51
12:05 pm 12:05 Cloudy with Drizzle 61 16.1 59 15 93 93 ENE 15 24 30.25 1024 3 4 0.00 0.00
12:13 pm 12:13 Cloudy with Mist and Fog 60 15.6 57 13.9 90 90 E 14 22 30.25 1024 4 6 0.00 0.00
12:48 pm 12:48 Cloudy 63 17 55 13 77 77 E 15 24 30.25 1024 7 11 0.01 0.25
12:54 pm 12:54 Cloudy 63 17.2 55 12.8 76 76 E 17 28 30.24 1024 7 11 0.01 0.25
1:54 pm 13:54 Cloudy 65 18.3 55 12.8 70 70 E 13 20 30.24 1024 10 16 0.00 0.00
2:54 pm 14:54 Cloudy 65 18.3 51 10.6 61 61 ESE 17 28 30.24 1024 10 16 0.00 0.00
3:54 pm 15:54 Cloudy 65 18.3 53 11.7 66 66 E 10 17 30.24 1024 10 16 0.00 0.00
4:54 pm 16:54 Cloudy 65 18.3 51 10.6 61 61 E 13 20 30.24 1024 10 16 0.00 0.00
5:54 pm 17:54 Cloudy 64 17.8 50 10 60 60 E 13 20 30.24 1024 10 16 0.00 0.00
6:54 pm 18:54 Cloudy 63 17.2 51 10.6 65 65 E 8 13 30.25 1024 10 16 0.00 0.00
7:54 pm 19:54 Mostly Cloudy 63 17.2 52 11.1 68 68 E 6 9 30.25 1025 10 16 0.00 0.00
8:54 pm 20:54 Mostly Cloudy 63 17.2 52 11.1 68 68 ESE 7 11 30.26 1025 10 16 0.00 0.00
9:54 pm 21:54 Mostly Cloudy 62 16.7 50 10 65 65 ESE 5 7 30.27 1025 10 16 0.00 0.00
10:54 pm 22:54 Mostly Cloudy 61 16.1 51 10.6 70 70 Calm 30.29 1026 10 16 0.00 0.00
11:54 pm 23:54 Mostly Cloudy 61 16.1 49 9.4 65 65 ENE 7 11 30.28 1025 10 16 0.00 0.00

Powered by AerisWeather